{"data":{"norad_id":59712,"epoch":"2026-05-24T22:08:37.051584Z","epoch_age_seconds":85707,"freshness":"FRESH","line1":"1 59712U 24088E   26144.92265106  .00002236  00000+0  23300-4 0  9998","line2":"2 59712  53.1589 310.6060 0000897  74.1394 285.9722 15.69716591118246","mean_motion":15.69716591,"eccentricity":8.97e-5,"inclination_deg":53.1589,"raan_deg":310.606,"arg_perigee_deg":74.1394,"mean_anomaly_deg":285.9722,"bstar":2.33e-5,"rev_number":11824,"period_min":91.736305028326,"perigee_km":359.10350488008,"apogee_km":360.31227425327,"semimajor_km":6737.8448895667,"source":"CELESTRAK","updated_at":"2026-05-25T13:38:19.046102Z"}}